Regional Weather Roundup
Issued by NWS

Home | Current Version | Previous Version | Graphics & Text | Print | Product List | Glossary On
Versions: 1 2 3 4 5 6 7 8 9 10 11 12 13 14 15 16 17 18 19 20 21 22 23 24 25 26 27 28 29 30 31 32 33 34 35 36 37 38 39 40 41 42 43 44 45 46 47 48 49 50
000
ASUS44 KMEG 162110
RWRTN
TENNESSEE HOURLY STATE WEATHER ROUNDUP
NATIONAL WEATHER SERVICE MEMPHIS TN
400 PM CDT WED APR 16 2014

TNZ002-004-019-021-049-052-054-088>092-162200-
WEST TENNESSEE

CITY           SKY/WX    TMP DP  RH WIND       PRES   REMARKS
MEMPHIS INTL   CLOUDY    61  24  24 S5        30.14F
NWS MEMPHIS      N/A     63 N/A N/A MISG        N/A
JACKSON        SUNNY     61  24  24 VRB5      30.15F
DYERSBURG      MOSUNNY   57  28  33 S7        30.18F
UNION CITY     SUNNY     55  28  35 S8        30.16F
PARIS          SUNNY     56  24  29 SE8       30.17F
LEXINGTON      SUNNY     61  18  18 CALM      30.15F
SAVANNAH       SUNNY     63  26  24 S7        30.15
$$

TNZ008-025-027-028-033-062-065-066-162200-
NORTH MIDDLE TENNESSEE

CITY           SKY/WX    TMP DP  RH WIND       PRES   REMARKS
NASHVILLE      PTSUNNY   59  25  27 SE3       30.20F
DICKSON        SUNNY     57  19  23 E6        30.18F
PORTLAND       SUNNY     55  27  33 E6        30.20F
CLARKSVILLE    SUNNY     56  28  34 SE8       30.20F
SMYRNA         SUNNY     61  26  26 E7        30.20F
MURFREESBORO   SUNNY     61  25  25 VRB7      30.18F
LIVINGSTON     SUNNY     57  25  29 VRB5      30.19F
GALLATIN       SUNNY     56  27  33 VRB5      30.22F
CROSSVILLE     SUNNY     56  20  24 SE7G16    30.21F
$$

TNZ061-075-076-078-094-096-097-162200-
SOUTH MIDDLE TENNESSEE

CITY           SKY/WX    TMP DP  RH WIND       PRES   REMARKS
LEWISBURG      SUNNY     61  27  27 SE6       30.18F
FAYETTEVILLE   SUNNY     61  25  25 S9        30.17F
TULLAHOMA      SUNNY     63  21  20 S9        30.18F
WINCHESTER     SUNNY     61  28  29 SE7       30.17F
MCMINNVILLE    SUNNY     64  27  24 VRB6      30.17F
COLUMBIA       SUNNY     61  37  41 E10       30.16F
SHELBYVILLE    SUNNY     63  27  25 SE6       30.19F
$$

TNZ017-018-042-046-047-162200-
NORTHEAST TENNESSEE

CITY           SKY/WX    TMP DP  RH WIND       PRES   REMARKS
TRI CITIES     MOSUNNY   60  21  22 CALM      30.23F
ELIZABETHTON   CLEAR     61  27  27 CALM      30.22F
$$

TNZ012-013-036-069-073-074-162200-
CENTRAL EAST TENNESSEE

CITY           SKY/WX    TMP DP  RH WIND       PRES   REMARKS
KNOXVILLE      MOSUNNY   58  28  32 N8        30.22F
OAK RIDGE      SUNNY     59  21  23 E3        30.23F
$$

TNZ083-085-099-162200-
SOUTHEAST TENNESSEE

CITY           SKY/WX    TMP DP  RH WIND       PRES   REMARKS
CHATTANOOGA    MOSUNNY   63  26  24 S8        30.20F
$$

SKY/WX REPORTED AS FAIR MEANS FEW OR NO CLOUDS BELOW
12 THOUSAND FEET.




USA.gov is the U.S. government's official web portal to all federal, state and local government web resources and services.